ProjectID,Date,Electric Generation,Electric Utility Import,Facility Electric Load
,YYYY-MM-DD,kW,kW,kW
310,2016-09-01,0.0,80.465,80.465
310,2016-09-02,0.0,124.05083333333333,124.05083333333333
310,2016-09-03,0.0,113.57666666666667,113.57666666666667
310,2016-09-04,0.0,113.03125,113.03125
310,2016-09-05,0.0,117.09791666666666,117.09791666666666
310,2016-09-06,0.0,119.91375,119.91375
310,2016-09-07,0.0,138.93875,138.93875
310,2016-09-08,0.0,182.4779166666667,182.4779166666667
310,2016-09-09,0.0,216.51041666666666,216.51041666666666
310,2016-09-10,0.0,215.03,215.03
310,2016-09-11,0.0,187.0925,187.0925
310,2016-09-12,0.0,110.5,110.5
310,2016-09-13,0.0,119.51583333333333,119.51583333333333
310,2016-09-14,0.0,141.72125,141.72125
310,2016-09-15,0.0,105.15375,105.15375
310,2016-09-16,0.0,92.93208333333332,92.93208333333332
310,2016-09-17,0.0,99.79416666666667,99.79416666666667
310,2016-09-18,0.0,137.77625,137.77625
310,2016-09-19,0.0,137.57541666666665,137.57541666666665
310,2016-09-20,0.0,134.29166666666666,134.29166666666666
310,2016-09-21,0.0,133.46875,133.46875
310,2016-09-22,0.0,124.6225,124.6225
310,2016-09-23,33.67583333333334,144.36708333333334,178.04291666666668
310,2016-09-24,60.21,101.42458333333333,161.63458333333332
310,2016-09-25,61.62125,79.95833333333333,141.57958333333335
310,2016-09-26,62.840833333333336,74.92708333333333,137.76791666666668
310,2016-09-27,50.11958333333333,91.09625,141.21583333333334
310,2016-09-28,63.14083333333334,82.02625,145.16708333333335
310,2016-09-29,63.07833333333334,71.04666666666667,134.125
310,2016-09-30,38.11958333333333,69.73166666666667,107.85125
310,2016-10-01,-1.2479166666666666,71.87,70.62208333333334
310,2016-10-02,-1.27,76.60916666666667,75.33916666666667
310,2016-10-03,38.85,76.66666666666667,115.51666666666668
310,2016-10-04,63.437083333333334,76.27875,139.71583333333334
310,2016-10-05,62.80125,72.51291666666667,135.31416666666667
310,2016-10-06,63.129999999999995,74.72166666666666,137.85166666666666
310,2016-10-07,62.78208333333333,75.74458333333332,138.52666666666664
310,2016-10-08,62.82458333333333,75.94541666666667,138.77
310,2016-10-09,62.90208333333334,77.94791666666667,140.85000000000002
310,2016-10-10,63.16083333333333,78.09125,141.25208333333333
310,2016-10-11,61.55416666666667,76.34625,137.90041666666667
310,2016-10-12,63.86708333333333,73.38,137.24708333333334
310,2016-10-13,63.24166666666667,68.73458333333333,131.97625
310,2016-10-14,64.0475,68.98708333333333,133.03458333333333
310,2016-10-15,64.0,71.78125,135.78125
310,2016-10-16,63.08083333333334,73.7525,136.83333333333334
310,2016-10-17,61.16375,81.84375,143.0075
310,2016-10-18,59.85541666666666,101.1875,161.04291666666666
310,2016-10-19,60.33583333333333,106.98166666666667,167.3175
310,2016-10-20,61.9625,81.92958333333333,143.89208333333332
310,2016-10-21,61.456250000000004,80.60416666666667,142.06041666666667
310,2016-10-22,63.645,84.21375,147.85875000000001
310,2016-10-23,50.83416666666667,82.30708333333332,133.14124999999999
310,2016-10-24,63.28583333333333,75.14583333333333,138.43166666666667
310,2016-10-25,65.06625,77.12,142.18625
310,2016-10-26,66.25791666666667,75.66666666666667,141.92458333333335
310,2016-10-27,66.28291666666667,79.25791666666667,145.54083333333335
310,2016-10-28,66.24833333333333,78.28375,144.53208333333333
310,2016-10-29,66.20208333333333,81.13541666666667,147.3375
310,2016-10-30,65.77333333333333,80.67708333333333,146.45041666666665
310,2016-10-31,66.18958333333333,70.815,137.00458333333333
310,2016-11-01,66.22125,68.45041666666667,134.67166666666668
310,2016-11-02,65.82083333333334,69.87791666666666,135.69875000000002
310,2016-11-03,60.779583333333335,70.96083333333333,131.74041666666665
310,2016-11-04,66.09375,67.68208333333332,133.7758333333333
310,2016-11-05,66.18791666666667,69.96875,136.15666666666667
310,2016-11-06,66.1875,72.05499999999999,138.2425
310,2016-11-07,66.215,71.03125,137.24625
310,2016-11-08,66.20083333333334,70.78875000000001,136.98958333333334
310,2016-11-09,66.18291666666667,70.34375,136.52666666666667
310,2016-11-10,66.21124999999999,69.45333333333333,135.66458333333333
310,2016-11-11,66.18916666666667,75.29416666666667,141.48333333333335
310,2016-11-12,66.2325,74.96625,141.19875000000002
310,2016-11-13,66.20833333333333,75.58583333333333,141.79416666666665
310,2016-11-14,66.19041666666666,70.08875,136.27916666666667
310,2016-11-15,66.2075,75.01291666666667,141.22041666666667
310,2016-11-16,66.19208333333333,68.16916666666667,134.36124999999998
310,2016-11-17,64.14458333333333,66.6275,130.77208333333334
310,2016-11-18,66.19,68.44791666666667,134.63791666666668
310,2016-11-19,66.19500000000001,69.57291666666667,135.76791666666668
310,2016-11-20,66.22375,83.0,149.22375
310,2016-11-21,66.24333333333333,82.52374999999999,148.76708333333332
310,2016-11-22,66.23416666666667,82.74708333333334,148.98125
310,2016-11-23,66.23541666666667,82.41416666666667,148.64958333333334
310,2016-11-24,66.24541666666667,82.83583333333333,149.08125
310,2016-11-25,66.19958333333334,78.45833333333333,144.65791666666667
310,2016-11-26,66.20916666666666,73.7475,139.95666666666665
310,2016-11-27,66.19458333333334,77.065,143.25958333333335
310,2016-11-28,66.20875,71.14583333333333,137.35458333333332
310,2016-11-29,66.2,73.26583333333333,139.46583333333334
310,2016-11-30,66.17458333333333,70.24458333333332,136.41916666666665
310,2016-12-01,66.18875,70.65916666666666,136.84791666666666
310,2016-12-02,66.19375000000001,70.04166666666667,136.23541666666668
310,2016-12-03,66.21833333333333,74.23416666666667,140.4525
310,2016-12-04,66.22541666666667,77.63291666666667,143.85833333333335
310,2016-12-05,66.2175,73.07791666666667,139.29541666666665
310,2016-12-06,66.2375,72.13833333333334,138.37583333333333
310,2016-12-07,23.846666666666668,74.76791666666666,98.61458333333333
310,2016-12-08,-1.0766666666666667,76.42708333333333,75.35041666666666
310,2016-12-09,-1.08125,77.86749999999999,76.78625
310,2016-12-10,-1.2820833333333332,82.22125,80.93916666666667
310,2016-12-11,-1.27875,85.41666666666667,84.13791666666667
310,2016-12-12,14.610416666666666,76.07041666666667,90.68083333333334
310,2016-12-13,35.990833333333335,76.00750000000001,111.99833333333333
310,2016-12-14,40.956250000000004,74.19541666666667,115.15166666666667
310,2016-12-15,66.30166666666666,82.48708333333333,148.78875
310,2016-12-16,66.31833333333334,82.90875,149.22708333333333
310,2016-12-17,66.32125,84.26291666666667,150.58416666666668
310,2016-12-18,66.26125,78.97666666666667,145.23791666666668
310,2016-12-19,66.26375,78.08583333333333,144.34958333333333
310,2016-12-20,19.34,21.659166666666668,40.99916666666667
310,2016-12-21,0.0,0.0,0.0
310,2016-12-22,-0.09999999999999999,25.0575,24.9575
310,2016-12-23,23.52625,82.64583333333333,106.17208333333333
310,2016-12-24,45.87583333333333,75.83583333333333,121.71166666666666
310,2016-12-25,45.87625,77.72125,123.5975
310,2016-12-26,45.87041666666667,77.1875,123.05791666666667
310,2016-12-27,45.885,72.34625,118.23124999999999
310,2016-12-28,49.10666666666666,73.28416666666666,122.39083333333332
310,2016-12-29,61.154583333333335,79.25,140.40458333333333
310,2016-12-30,66.22083333333333,78.96333333333332,145.18416666666667
310,2016-12-31,66.22125,78.94541666666667,145.16666666666669
310,2017-01-01,66.19,75.20041666666667,141.39041666666668
310,2017-01-02,66.1925,76.4325,142.625
310,2017-01-03,66.19166666666666,72.29916666666666,138.49083333333334
310,2017-01-04,66.16208333333334,70.66666666666667,136.82875
310,2017-01-05,66.16625,75.04458333333334,141.21083333333334
310,2017-01-06,66.16416666666667,76.73416666666667,142.89833333333334
310,2017-01-07,66.17916666666666,89.30208333333333,155.48125
310,2017-01-08,66.18375,95.09375,161.2775
310,2017-01-09,66.19291666666668,86.66916666666667,152.86208333333335
310,2017-01-10,64.48125,83.02083333333333,147.50208333333333
310,2017-01-11,66.08916666666667,71.70583333333333,137.79500000000002
310,2017-01-12,66.03125,68.48958333333333,134.52083333333331
310,2017-01-13,65.99708333333334,68.36208333333333,134.35916666666668
310,2017-01-14,66.06083333333333,75.89583333333333,141.95666666666665
310,2017-01-15,66.07416666666667,78.58083333333333,144.655
310,2017-01-16,66.04583333333333,72.84375,138.88958333333335
310,2017-01-17,66.01291666666667,72.20541666666666,138.21833333333333
310,2017-01-18,66.05916666666667,72.6825,138.74166666666667
310,2017-01-19,54.999583333333334,55.57541666666666,110.57499999999999
310,2017-01-20,27.495,30.356666666666666,57.85166666666667
310,2017-01-21,23.569166666666664,68.44,92.00916666666666
310,2017-01-22,-1.2791666666666666,72.375,71.09583333333333
310,2017-01-23,34.85958333333333,69.95041666666667,104.81
310,2017-01-24,64.71958333333333,70.89583333333333,135.61541666666665
310,2017-01-25,65.9425,69.20041666666667,135.14291666666668
310,2017-01-26,65.90875,65.685,131.59375
310,2017-01-27,65.89125,68.91166666666668,134.80291666666668
310,2017-01-28,65.88125000000001,72.77583333333332,138.65708333333333
310,2017-01-29,65.82000000000001,72.89583333333333,138.71583333333334
310,2017-01-30,65.87625,69.09625,134.9725
310,2017-01-31,66.05416666666666,76.73708333333333,142.79125
310,2017-02-01,65.96208333333333,69.35166666666667,135.31375
310,2017-02-02,65.935,68.29166666666667,134.2266666666667
310,2017-02-03,65.83833333333332,69.54166666666667,135.38
310,2017-02-04,65.85041666666667,73.32791666666667,139.17833333333334
310,2017-02-05,65.74833333333333,76.40125,142.14958333333334
310,2017-02-06,65.65833333333333,68.53125,134.18958333333333
310,2017-02-07,65.7725,69.20041666666667,134.97291666666666
310,2017-02-08,65.85666666666667,66.30208333333333,132.15875
310,2017-02-09,65.645,81.54166666666667,147.18666666666667
310,2017-02-10,65.94041666666666,76.29708333333333,142.2375
310,2017-02-11,66.05583333333333,72.38250000000001,138.43833333333333
310,2017-02-12,66.08,79.62791666666666,145.70791666666668
310,2017-02-13,65.94583333333334,73.58583333333333,139.53166666666667
310,2017-02-14,65.74208333333333,72.35666666666667,138.09875
310,2017-02-15,65.80041666666666,69.125,134.92541666666665
310,2017-02-16,65.80541666666666,70.88541666666667,136.69083333333333
310,2017-02-17,65.60583333333334,71.52875,137.13458333333335
310,2017-02-18,65.57458333333334,67.38541666666667,132.96
310,2017-02-19,65.40875,66.88,132.28875
310,2017-02-20,65.47875,66.58333333333333,132.06208333333333
310,2017-02-21,65.55583333333333,66.58333333333333,132.13916666666665
310,2017-02-22,65.69958333333334,65.59916666666668,131.29875
310,2017-02-23,54.60583333333333,62.375,116.98083333333332
310,2017-02-24,66.05166666666666,63.59375,129.64541666666668
310,2017-02-25,65.83,64.03125,129.86124999999998
310,2017-02-26,66.16625,68.6825,134.84875
310,2017-02-27,66.21083333333333,65.74208333333333,131.95291666666665
310,2017-02-28,66.19708333333334,61.36208333333334,127.55916666666667
310,2017-03-01,66.17083333333333,60.82791666666666,126.99875
310,2017-03-02,66.15583333333333,62.815,128.97083333333333
310,2017-03-03,66.24458333333332,68.25,134.4945833333333
310,2017-03-04,66.25208333333333,78.75291666666666,145.005
310,2017-03-05,66.2675,81.46083333333333,147.72833333333332
310,2017-03-06,66.28333333333333,69.13291666666667,135.41625
310,2017-03-07,66.28166666666667,65.66666666666667,131.94833333333332
310,2017-03-08,66.20125,64.91375000000001,131.115
310,2017-03-09,65.78833333333334,63.416666666666664,129.205
310,2017-03-10,66.29041666666667,72.15916666666666,138.44958333333335
310,2017-03-11,66.36458333333333,78.98166666666667,145.34625
310,2017-03-12,66.34333333333333,78.21083333333333,144.55416666666667
310,2017-03-13,66.33583333333333,74.41916666666667,140.755
310,2017-03-14,66.36666666666666,87.65125,154.01791666666668
310,2017-03-15,65.44625,84.59375,150.04000000000002
310,2017-03-16,66.38666666666667,75.20833333333333,141.595
310,2017-03-17,66.36708333333333,69.83833333333332,136.20541666666665
310,2017-03-18,66.34125,74.75541666666668,141.0966666666667
310,2017-03-19,66.36583333333333,67.92958333333333,134.29541666666665
310,2017-03-20,66.32875,65.44,131.76875
310,2017-03-21,66.3175,64.70833333333333,131.0258333333333
310,2017-03-22,66.36,67.27875,133.63875000000002
310,2017-03-23,3.7529166666666662,7.536666666666666,11.289583333333333
310,2017-03-24,0.0,0.0,0.0
310,2017-03-25,0.0,0.0,0.0
310,2017-03-26,0.0,0.0,0.0
310,2017-03-27,26.105833333333333,29.59375,55.69958333333334
310,2017-03-28,66.17916666666666,68.52625,134.70541666666668
310,2017-03-29,66.14333333333333,63.2525,129.39583333333331
310,2017-03-30,66.185,63.666666666666664,129.85166666666666
310,2017-03-31,66.25458333333333,68.61958333333332,134.87416666666667
310,2017-04-01,66.27416666666666,71.71375,137.98791666666665
310,2017-04-02,66.06625,66.34625,132.4125
310,2017-04-03,66.05916666666667,63.072916666666664,129.13208333333333
310,2017-04-04,66.12208333333334,63.02875,129.15083333333334
310,2017-04-05,65.74125,60.65083333333333,126.39208333333332
310,2017-04-06,66.25375,68.0575,134.31125
310,2017-04-07,65.9375,66.4425,132.38
310,2017-04-08,66.20875,67.77625,133.985
310,2017-04-09,65.56666666666666,64.81,130.37666666666667
310,2017-04-10,62.22333333333333,61.85125,124.07458333333332
310,2017-04-11,60.03125,67.89583333333333,127.92708333333333
310,2017-04-12,57.63583333333333,71.62791666666666,129.26375
310,2017-04-13,62.28375,64.49708333333334,126.78083333333333
310,2017-04-14,62.800000000000004,61.78125,124.58125000000001
310,2017-04-15,62.86291666666667,63.13041666666667,125.99333333333334
310,2017-04-16,59.75833333333333,76.83083333333333,136.58916666666667
310,2017-04-17,43.195,62.19541666666667,105.39041666666667
310,2017-04-18,27.052083333333332,28.825416666666666,55.8775
310,2017-04-19,66.08,64.52374999999999,130.60375
310,2017-04-20,65.37583333333333,64.15083333333332,129.52666666666664
310,2017-04-21,65.60541666666667,62.520833333333336,128.12625
310,2017-04-22,63.20791666666667,64.20833333333333,127.41624999999999
310,2017-04-23,63.82583333333333,65.32041666666667,129.14625
310,2017-04-24,62.53791666666667,62.97125,125.50916666666666
310,2017-04-25,65.06333333333333,66.0,131.06333333333333
310,2017-04-26,63.31875,66.32041666666667,129.63916666666668
310,2017-04-27,62.14458333333334,65.23416666666667,127.37875
310,2017-04-28,3.6983333333333337,52.286249999999995,55.984583333333326
310,2017-04-29,-1.2116666666666667,86.08083333333333,84.86916666666666
310,2017-04-30,-1.2308333333333332,68.73166666666667,67.50083333333333
310,2017-05-01,-0.4995833333333333,22.47375,21.974166666666665
310,2017-05-02,0.0,0.0,0.0
310,2017-05-03,0.0,0.0,0.0
310,2017-05-04,0.0,0.0,0.0
310,2017-05-05,0.0,0.0,0.0
310,2017-05-06,0.0,0.0,0.0
310,2017-05-07,0.0,0.0,0.0
310,2017-05-08,0.0,0.0,0.0
310,2017-05-09,0.0,0.0,0.0
310,2017-05-10,0.0,0.0,0.0
310,2017-05-11,0.0,0.0,0.0
310,2017-05-12,0.0,0.0,0.0
310,2017-05-13,0.0,0.0,0.0
310,2017-05-14,0.0,0.0,0.0
310,2017-05-15,0.0,0.0,0.0
310,2017-05-16,0.0,0.0,0.0
310,2017-05-17,0.0,0.0,0.0
310,2017-05-18,0.0,0.0,0.0
310,2017-05-19,0.0,0.0,0.0
310,2017-05-20,0.0,0.0,0.0
310,2017-05-21,0.0,0.0,0.0
310,2017-05-22,0.0,0.0,0.0
310,2017-05-23,0.0,0.0,0.0
310,2017-05-24,0.0,0.0,0.0
310,2017-05-25,0.0,0.0,0.0
310,2017-05-26,0.0,0.0,0.0
310,2017-05-27,0.0,0.0,0.0
310,2017-05-28,0.0,0.0,0.0
310,2017-05-29,0.0,0.0,0.0
310,2017-05-30,0.0,0.0,0.0
310,2017-05-31,0.0,0.0,0.0
310,2017-06-01,0.0,0.0,0.0
310,2017-06-02,0.0,0.0,0.0
310,2017-06-03,0.0,0.0,0.0
310,2017-06-04,0.0,0.0,0.0
310,2017-06-05,0.0,0.0,0.0
310,2017-06-06,0.0,0.0,0.0
310,2017-06-07,0.0,0.0,0.0
310,2017-06-08,0.0,0.0,0.0
310,2017-06-09,18.304583333333333,51.85166666666667,70.15625
310,2017-06-10,35.062916666666666,111.685,146.74791666666667
310,2017-06-11,43.411249999999995,165.33583333333334,208.74708333333334
310,2017-06-12,32.84166666666667,197.11208333333332,229.95374999999999
310,2017-06-13,22.339583333333334,210.25250000000003,232.59208333333336
310,2017-06-14,39.58708333333333,182.48166666666668,222.06875000000002
310,2017-06-15,41.065,126.19291666666668,167.2579166666667
310,2017-06-16,41.15083333333333,93.73708333333333,134.88791666666665
310,2017-06-17,45.22958333333333,98.63,143.85958333333332
310,2017-06-18,44.91166666666667,146.90625,191.81791666666666
310,2017-06-19,23.200000000000042,165.08875,188.28875000000005
310,2017-06-20,27.40416666666667,141.77833333333334,169.1825
310,2017-06-21,39.82541666666666,149.61208333333335,189.4375
310,2017-06-22,29.753333333333334,150.39083333333335,180.14416666666668
310,2017-06-23,22.127499999999998,183.5675,205.695
310,2017-06-24,37.137499999999996,172.39833333333334,209.53583333333333
310,2017-06-25,34.402499999999996,156.8725,191.275
310,2017-06-26,43.57666666666666,128.67958333333334,172.25625
310,2017-06-27,39.41791666666666,110.9325,150.35041666666666
310,2017-06-28,39.17666666666667,102.04416666666667,141.22083333333333
310,2017-06-29,42.13375,128.91416666666666,171.04791666666665
310,2017-06-30,28.387916666666666,168.63541666666666,197.0233333333333
310,2017-07-01,32.169583333333335,180.73708333333332,212.90666666666664
310,2017-07-02,26.352083333333336,168.38791666666665,194.73999999999998
310,2017-07-03,17.1775,107.38,124.55749999999999
310,2017-07-04,30.397916666666664,174.39833333333334,204.79625000000001
310,2017-07-05,16.200833333333332,166.83083333333335,183.03166666666667
310,2017-07-06,16.534583333333334,119.50291666666668,136.03750000000002
310,2017-07-07,31.93958333333333,134.95333333333335,166.89291666666668
310,2017-07-08,7.195833333333333,159.36166666666665,166.55749999999998
310,2017-07-09,-0.8054166666666666,144.26041666666666,143.45499999999998
310,2017-07-10,5.522916666666667,162.19541666666666,167.71833333333333
310,2017-07-11,10.274583333333334,179.11458333333334,189.38916666666668
310,2017-07-12,8.222083333333334,200.60416666666666,208.82625
310,2017-07-13,6.884166666666666,211.96875,218.85291666666666
310,2017-07-14,11.275,123.28125,134.55625
310,2017-07-15,27.85375,135.14083333333335,162.99458333333334
310,2017-07-16,13.192916666666667,165.33333333333334,178.52625
310,2017-07-17,8.125416666666666,183.65625,191.78166666666667
310,2017-07-18,17.034166666666668,200.94791666666666,217.98208333333332
310,2017-07-19,22.422916666666666,224.85416666666666,247.27708333333334
310,2017-07-20,26.008750000000003,222.96333333333334,248.97208333333333
310,2017-07-21,-0.8054166666666666,213.85916666666665,213.05374999999998
310,2017-07-22,-1.3183333333333334,222.80208333333334,221.48375000000001
310,2017-07-23,-1.3195833333333333,190.07833333333335,188.75875000000002
310,2017-07-24,26.492500000000003,112.72375,139.21625
310,2017-07-25,35.785833333333336,77.57291666666667,113.35875000000001
310,2017-07-26,29.810833333333335,95.93208333333332,125.74291666666666
310,2017-07-27,36.00083333333333,102.48958333333333,138.49041666666665
310,2017-07-28,19.968333333333334,145.30208333333334,165.27041666666668
310,2017-07-29,31.391666666666666,115.46375,146.85541666666666
310,2017-07-30,39.08541666666667,113.17166666666667,152.25708333333333
310,2017-07-31,19.787499999999998,151.54166666666666,171.32916666666665
310,2017-08-01,15.333333333333334,193.23458333333335,208.5679166666667
310,2017-08-02,33.09291666666667,180.45291666666665,213.54583333333332
310,2017-08-03,34.67208333333333,167.00541666666666,201.6775
310,2017-08-04,36.02833333333333,179.505,215.53333333333333
310,2017-08-05,23.006666666666664,155.245,178.25166666666667
310,2017-08-06,34.35166666666667,106.91666666666667,141.26833333333335
310,2017-08-07,33.00416666666667,92.98958333333333,125.99375
310,2017-08-08,30.0125,98.49458333333332,128.50708333333333
310,2017-08-09,34.34083333333333,134.76041666666666,169.10125
310,2017-08-10,17.425,152.75,170.175
310,2017-08-11,33.69833333333333,150.90625,184.60458333333332
310,2017-08-12,25.49208333333333,143.29166666666666,168.78375
310,2017-08-13,31.190416666666668,166.88041666666666,198.07083333333333
310,2017-08-14,30.88,151.89583333333334,182.77583333333334
310,2017-08-15,30.9675,146.34375,177.31125
310,2017-08-16,33.835,156.22375,190.05875
310,2017-08-17,20.72,156.125,176.845
310,2017-08-18,33.63875,176.44291666666666,210.08166666666665
310,2017-08-19,30.682083333333335,185.55208333333334,216.23416666666668
310,2017-08-20,33.05291666666667,167.75,200.80291666666668
310,2017-08-21,31.604166666666668,172.67166666666665,204.2758333333333
310,2017-08-22,35.514583333333334,203.10958333333335,238.62416666666667
310,2017-08-23,27.463333333333335,172.65625,200.11958333333334
310,2017-08-24,28.33875,136.51541666666665,164.85416666666666
310,2017-08-25,31.00916666666667,116.56791666666668,147.57708333333335
310,2017-08-26,31.295,100.83333333333333,132.12833333333333
310,2017-08-27,35.651666666666664,106.19791666666667,141.84958333333333
310,2017-08-28,29.076666666666668,101.20291666666667,130.27958333333333
310,2017-08-29,39.06875,85.01583333333333,124.08458333333334
310,2017-08-30,20.9175,81.5,102.4175
310,2017-08-31,30.846666666666668,94.89041666666667,125.73708333333333
310,2017-09-01,35.74666666666666,74.70833333333333,110.45499999999998
310,2017-09-02,36.7325,66.33333333333333,103.06583333333333
310,2017-09-03,35.17875,72.9375,108.11625000000001
310,2017-09-04,38.270833333333336,86.96875,125.23958333333334
310,2017-09-05,31.950833333333335,124.66166666666668,156.6125
310,2017-09-06,37.94166666666667,109.83875,147.78041666666667
310,2017-09-07,35.69083333333334,80.21875,115.90958333333333
310,2017-09-08,0.5420833333333334,72.63,73.17208333333333
310,2017-09-09,37.68,70.48958333333333,108.16958333333332
310,2017-09-10,39.30416666666667,72.75,112.05416666666667
310,2017-09-11,33.525,74.22416666666668,107.74916666666667
310,2017-09-12,31.292083333333334,90.21875,121.51083333333334
310,2017-09-13,28.853333333333335,107.68208333333332,136.53541666666666
310,2017-09-14,33.974583333333335,121.29166666666667,155.26625
310,2017-09-15,18.236250000000002,156.59666666666666,174.83291666666668
310,2017-09-16,33.92375,161.33124999999998,195.255
310,2017-09-17,29.000833333333333,158.29291666666668,187.29375000000002
310,2017-09-18,31.789583333333336,131.28041666666667,163.07
310,2017-09-19,32.39458333333334,118.60041666666666,150.995
310,2017-09-20,11.357916666666666,136.94458333333333,148.30249999999998
310,2017-09-21,11.430833333333332,150.23749999999998,161.66833333333332
310,2017-09-22,35.675000000000004,116.84333333333332,152.51833333333332
310,2017-09-23,36.03875,131.47916666666666,167.51791666666665
310,2017-09-24,11.878749999999998,190.13250000000002,202.01125000000002
310,2017-09-25,13.386249999999999,205.65333333333334,219.03958333333333
310,2017-09-26,14.126666666666667,187.5775,201.70416666666665
310,2017-09-27,12.610833333333334,186.60708333333332,199.21791666666667
310,2017-09-28,-1.3191666666666666,171.12041666666667,169.80125
310,2017-09-29,26.634583333333335,85.50125000000001,112.13583333333335
310,2017-09-30,32.8175,80.60666666666667,113.42416666666668
310,2017-10-01,38.262499999999996,80.48833333333333,118.75083333333333
310,2017-10-02,20.585416666666667,93.20958333333334,113.79500000000002
310,2017-10-03,36.162083333333335,82.66208333333334,118.82416666666668
310,2017-10-04,40.816250000000004,81.52666666666667,122.34291666666667
310,2017-10-05,33.334583333333335,101.68041666666666,135.015
310,2017-10-06,28.285416666666666,129.84875,158.13416666666666
310,2017-10-07,31.829166666666666,136.47541666666666,168.3045833333333
310,2017-10-08,29.265833333333333,153.21875,182.48458333333332
310,2017-10-09,35.22,149.61791666666667,184.83791666666667
310,2017-10-10,30.71375,134.63541666666666,165.34916666666666